Location: *
(46.1006°N, 1.8394°E)
Time: 15:59:44
(UTC+00:00)

Cosmos 1455 Rocket - Pass Details

Date: 20 September 2019
Orbit: 604 x 630 km, 82.5° (Epoch: 22 October)

Event Time Altitude Azimuth Distance (km) Brightness Sun altitude
Exits shadow 19:08:44 - 162° (SSE) 2,514 5.9 -13.4°
Reaches altitude 10° 19:10:07 10° 156° (SSE) 1,993 5.3 -13.7°
Maximum altitude 19:14:08 35° 91° (E) 1,020 3.7 -14.3°
Drops below altitude 10° 19:18:12 10° 26° (NNE) 2,017 5.6 -15.0°
Sets 19:20:35 0° 17° (NNE) 2,932 6.5 -15.4°
